Location: Cahoon Acres
(40.8736°N, 111.8994°W)
Time: 12:18:11
(UTC+00:00)

SR - Pass Details

Date: 08 June 2020
Orbit: 583 x 872 km, 66.7° (Epoch: 14 July)

Event Time Altitude Azimuth Distance (km) Brightness Sun altitude
Rises 05:43:29 0° 327° (NNW) 2,852 ? -21.9°
Reaches altitude 10° 05:45:46 10° 325° (NW) 1,927 ? -22.1°
Maximum altitude 05:50:01 67° 244° (WSW) 634 ? -22.4°
Enters shadow 05:50:16 65° 219° (SW) 642 ? -22.4°
Drops below altitude 10° 05:54:13 10° 161° (SSE) 1,903 - -22.7°
Sets 05:56:28 0° 159° (SSE) 2,813 - -22.9°
